[[{"header":{"parameterUnit":"m.s-1","parameterCategory":1,"la1":30.2991,"la2":30.254,"lo1":-89.0895,"lo2":-89.0444,"dy":0.0017,"dx":0.0017,"nx":28,"ny":28,"refTime":"2025-03-13T21:00:00:Z","depth":0,"parameterNumber":2,"parameterNumberName":"U-component_of_WINDS"},"data":[0,0,0,0,0,0,0,0,0,0,0,0,0,0,0,0,0,0,0,0,0,0,0,0,0,0,0,0,0,0,0,0,0,0,0,0,0,0,0,0,0,0,0,0,0,0,0,0,0,0,0,0,0,0,0,0,0,0,-2.7203,-2.7203,0,-2.7253,-2.7254,-2.7255,-2.7259,-2.7258,-2.7257,-2.7257,-2.7311,-2.7313,-2.7315,0,0,0,0,0,0,0,0,0,0,0,0,0,-2.7113,-2.7114,-2.7203,-2.7203,-2.7204,-2.7253,-2.7254,-2.7255,-2.7259,-2.7258,-2.7257,-2.7257,-2.7311,-2.7313,-2.7315,0,0,0,0,0,0,0,0,0,0,0,0,0,-2.7156,-2.7115,-2.7203,-2.7212,-2.7213,-2.7253,-2.7254,-2.7255,-2.7259,-2.7258,-2.7257,-2.7256,-2.731,-2.7313,-2.7316,-2.7351,0,0,-2.7325,-2.7326,0,0,0,0,0,0,0,0,-2.7154,-2.716,-2.721,-2.7211,-2.7213,-2.7249,-2.7242,-2.7287,-2.7259,-2.7242,-2.7257,-2.7256,-2.7291,-2.7296,-2.7307,-2.7353,-2.7356,-2.7325,-2.7327,-2.7328,-2.7329,0,0,0,0,0,0,0,-2.7151,-2.7158,-2.7223,-2.7211,-2.7213,-2.7215,-2.722,-2.7251,-2.7271,-2.7243,-2.7243,-2.7249,-2.7292,-2.7304,-2.7309,-2.7356,-2.7325,-2.7327,-2.7329,-2.733,-2.7434,-2.7435,0,0,0,0,0,0,-2.7146,-2.7155,-2.7221,-2.7224,-2.7181,-2.7217,-2.7223,-2.7238,-2.727,-2.7274,-2.725,-2.7249,-2.73,-2.7305,-2.731,-2.7353,-2.7328,-2.7331,-2.7332,-2.7433,-2.7434,-2.7435,0,0,0,0,0,0,-2.7144,-2.7152,-2.7219,-2.719,-2.7199,-2.7219,-2.7237,-2.724,-2.7252,-2.7275,-2.7279,-2.7259,-2.7299,-2.7306,-2.734,-2.7355,-2.7332,-2.7335,-2.7432,-2.7434,-2.7435,-2.7438,0,0,0,0,0,0,-2.7141,-2.7151,-2.7163,-2.719,-2.72,-2.7247,-2.7237,-2.7241,-2.7257,-2.7256,-2.7285,-2.7289,-2.7299,-2.7336,-2.7343,-2.7359,-2.7337,-2.7431,-2.7433,-2.7434,-2.7437,-2.744,-2.7442,0,0,0,0,0,-2.7138,-2.7163,-2.7164,-2.7172,-2.7216,-2.7248,-2.7254,-2.7265,-2.7258,-2.7271,-2.7286,-2.7288,-2.7353,-2.734,-2.7348,-2.7364,-2.743,-2.7432,-2.7434,-2.7436,-2.7439,-2.7442,0,0,0,0,0,0,-2.7138,-2.7167,-2.7168,-2.7202,-2.7223,-2.7249,-2.7266,-2.7268,-2.7292,-2.729,-2.7304,-2.7311,-2.7344,-2.7358,-2.7343,-2.74,-2.7391,-2.7395,-2.7389,-2.7392,-2.7395,-2.739,-2.734,0,0,0,0,0,-2.7142,-2.7165,-2.7189,-2.7217,-2.7227,-2.7245,-2.7259,-2.7266,-2.7288,-2.7297,-2.7315,-2.7337,-2.7362,-2.7378,-2.7403,-2.744,-2.7446,-2.7456,-2.7458,-2.746,-2.7463,-2.7483,-2.7487,-2.7443,-2.7443,-2.7443,0,0,-2.7151,-2.7169,-2.7183,-2.7217,-2.7234,-2.7258,-2.7252,-2.7277,-2.7295,-2.7301,-2.7333,-2.7348,-2.7374,-2.7409,-2.7426,-2.7422,-2.7477,-2.7463,-2.7464,-2.7466,-2.7486,-2.749,-2.7494,-2.7444,-2.7444,-2.7444,0,0,-2.7178,-2.7194,-2.7219,-2.7236,-2.7261,-2.7272,-2.7279,-2.7305,-2.7314,-2.7347,-2.7352,-2.7374,-2.7418,-2.7436,-2.7451,-2.7486,-2.7488,-2.7494,-2.7507,-2.7527,-2.753,-2.7533,-2.7545,-2.7549,-2.7497,-2.7497,-2.7497,0,-2.7185,-2.722,-2.7232,-2.7257,-2.7272,-2.7278,-2.7304,-2.732,-2.7352,-2.7363,-2.7358,-2.7413,-2.7431,-2.747,-2.7479,-2.7492,-2.7499,-2.749,-2.7529,-2.7532,-2.7535,-2.7547,-2.7551,-2.7498,-2.7498,-2.7498,-2.7498,0,-2.7228,-2.7252,-2.7269,-2.7299,-2.7317,-2.7342,-2.7358,-2.7375,-2.7381,-2.7394,-2.7428,-2.745,-2.7479,-2.749,-2.7496,-2.7531,-2.7527,-2.7526,-2.7516,-2.754,-2.755,-2.7555,-2.7499,-2.7498,-2.7498,-2.7498,0,0,-2.7254,-2.7291,-2.7297,-2.731,-2.7339,-2.7359,-2.7385,-2.7413,-2.7427,-2.745,-2.7472,-2.751,-2.7508,-2.7525,-2.7534,-2.7552,-2.7578,-2.7548,-2.7549,-2.7551,-2.7617,-2.7616,-2.7621,-2.758,-2.7581,-2.7582,-2.7614,0,-2.7284,-2.7329,-2.734,-2.7379,-2.7402,-2.7409,-2.7432,-2.7453,-2.7466,-2.7488,-2.7504,-2.7529,-2.7526,-2.7536,-2.7554,-2.757,-2.7591,-2.7569,-2.7601,-2.7602,-2.7592,-2.7627,-2.7627,-2.7656,-2.7619,-2.7619,-2.762,0,-2.7323,-2.7345,-2.7386,-2.7412,-2.7422,-2.7442,-2.7469,-2.749,-2.7514,-2.7523,-2.7542,-2.755,-2.7578,-2.7569,-2.7609,-2.7594,-2.7609,-2.7619,-2.7621,-2.7622,-2.7611,-2.7628,-2.7666,-2.7669,-2.7627,-2.7626,-2.7626,0,-2.7337,-2.7378,-2.7407,-2.7419,-2.745,-2.7464,-2.7478,-2.7501,-2.7517,-2.7542,-2.7552,-2.758,-2.7595,-2.7617,-2.7632,-2.7624,-2.7671,-2.7663,-2.7678,-2.7678,-2.7686,-2.7685,-2.7724,-2.7698,-2.7698,-2.7698,-2.7698,0,-2.7367,-2.7391,-2.7413,-2.7431,-2.7459,-2.7474,-2.7501,-2.7516,-2.7537,-2.7558,-2.7567,-2.7588,-2.7607,-2.7631,-2.7644,-2.7675,-2.7682,-2.769,-2.7692,-2.7688,-2.7686,-2.7696,-2.7694,-2.77,-2.7699,-2.7699,-2.7699,0,-2.7386,-2.7402,-2.7434,-2.7461,-2.7469,-2.7488,-2.7512,-2.753,-2.7544,-2.7572,-2.7579,-2.7601,-2.763,-2.7647,-2.7684,-2.7692,-2.7726,-2.7729,-2.7717,-2.7718,-2.7732,-2.773,-2.7778,-2.7784,-2.7755,-2.7755,-2.7756,0,-2.7403,-2.7422,-2.7451,-2.7465,-2.7479,-2.7503,-2.7519,-2.7535,-2.7552,-2.7581,-2.7596,-2.7625,-2.7648,-2.7693,-2.7714,-2.7742,-2.7744,-2.7759,-2.7749,-2.7743,-2.7743,-2.7741,-2.7743,-2.776,-2.7761,-2.7761,-2.7761,0,-2.7432,-2.7439,-2.7461,-2.7487,-2.7506,-2.7527,-2.7548,-2.756,-2.758,-2.7599,-2.7627,-2.7645,-2.7682,-2.771,-2.774,-2.7756,-2.7762,-2.7765,-2.7769,-2.7764,-2.7756,-2.7759,-2.772,-2.7763,-2.7763,-2.7762,-2.7762,-2.7762,-2.745,-2.7467,-2.7489,-2.7514,-2.7532,-2.7552,-2.757,-2.7586,-2.761,-2.764,-2.7649,-2.7678,-2.7703,-2.7744,-2.7761,-2.7785,-2.7783,-2.779,-2.7792,-2.7793,-2.7792,-2.7753,-2.7791,-2.7791,-2.7791,-2.7791,-2.7791,0,-2.7478,-2.7493,-2.7516,-2.7545,-2.7565,-2.7568,-2.7592,-2.7609,-2.7634,-2.7657,-2.7679,-2.7712,-2.774,-2.7763,-2.7792,-2.7807,-2.7811,-2.7814,-2.7812,-2.7816,-2.7793,-2.7785,-2.7811,-2.7811,-2.7811,-2.7811,-2.7811,-2.7811,-2.7495,-2.7523,-2.7533,-2.757,-2.7586,-2.7614,-2.7627,-2.7646,-2.7664,-2.7699,-2.7722,-2.7737,-2.776,-2.7791,-2.7817,-2.7823,-2.7833,-2.7836,-2.7842,-2.782,-2.7818,-2.7815,-2.7808,-2.7838,-2.7838,-2.7863,-2.7863,-2.7863]},{"header":{"parameterUnit":"m.s-1","parameterCategory":1,"la1":30.2991,"la2":30.254,"lo1":-89.0895,"lo2":-89.0444,"dy":0.0017,"dx":0.0017,"nx":28,"ny":28,"refTime":"2025-03-13T21:00:00:Z","depth":0,"parameterNumber":3,"parameterNumberName":"V-component_of_WINDS"},"data":[0,0,0,0,0,0,0,0,0,0,0,0,0,0,0,0,0,0,0,0,0,0,0,0,0,0,0,0,0,0,0,0,0,0,0,0,0,0,0,0,0,0,0,0,0,0,0,0,0,0,0,0,0,0,0,0,0,0,5.4304,5.4304,0,5.4286,5.4286,5.4286,5.425,5.425,5.4249,5.4248,5.4227,5.4228,5.4228,0,0,0,0,0,0,0,0,0,0,0,0,0,5.4308,5.4308,5.4304,5.4304,5.4304,5.4286,5.4286,5.4286,5.4251,5.425,5.4249,5.4248,5.4227,5.4228,5.4228,0,0,0,0,0,0,0,0,0,0,0,0,0,5.43,5.4308,5.4304,5.4284,5.4282,5.4286,5.4286,5.4285,5.4251,5.425,5.4249,5.4248,5.4227,5.4227,5.4228,5.4249,0,0,5.4228,5.4228,0,0,0,0,0,0,0,0,5.43,5.43,5.4287,5.4286,5.4284,5.427,5.4279,5.4273,5.4251,5.4263,5.4248,5.4247,5.4242,5.4241,5.424,5.4248,5.4247,5.4228,5.4228,5.4228,5.4228,0,0,0,0,0,0,0,5.4301,5.43,5.4297,5.4287,5.4285,5.4276,5.4274,5.4278,5.4258,5.4262,5.4259,5.4257,5.4241,5.424,5.4239,5.4246,5.4228,5.4228,5.4228,5.4228,5.4274,5.4275,0,0,0,0,0,0,5.4305,5.4301,5.4298,5.4296,5.429,5.4277,5.4274,5.4275,5.4258,5.4255,5.4258,5.4256,5.424,5.4239,5.4238,5.4264,5.4228,5.4228,5.4228,5.4273,5.4274,5.4275,0,0,0,0,0,0,5.4305,5.4305,5.4298,5.4298,5.4297,5.4278,5.4279,5.4275,5.4274,5.4256,5.4252,5.4261,5.4239,5.4238,5.4247,5.4263,5.4228,5.4228,5.4271,5.4273,5.4275,5.4314,0,0,0,0,0,0,5.4305,5.4305,5.4313,5.4299,5.4297,5.4308,5.428,5.4276,5.4275,5.4271,5.4257,5.4254,5.4238,5.4247,5.4247,5.4262,5.4228,5.427,5.4272,5.4274,5.4312,5.4317,5.4322,0,0,0,0,0,5.4305,5.4324,5.4313,5.4313,5.4306,5.4309,5.4308,5.429,5.4276,5.4284,5.4273,5.4254,5.4261,5.4248,5.4248,5.4263,5.4269,5.4271,5.4274,5.4309,5.4316,5.4322,0,0,0,0,0,0,5.4339,5.4321,5.431,5.4324,5.4318,5.4303,5.4312,5.4298,5.4295,5.4292,5.427,5.4267,5.428,5.4272,5.4259,5.4284,5.4262,5.4265,5.4289,5.4295,5.43,5.4303,5.4228,0,0,0,0,0,5.4348,5.4352,5.4336,5.435,5.4348,5.4331,5.4331,5.4319,5.4312,5.4309,5.4298,5.4291,5.4292,5.4293,5.4292,5.431,5.4307,5.432,5.4326,5.433,5.4333,5.4344,5.4351,5.4284,5.4284,5.4284,0,0,5.4366,5.4357,5.4361,5.4357,5.4351,5.4356,5.4329,5.4335,5.4338,5.4309,5.4318,5.431,5.4301,5.4316,5.4321,5.431,5.4351,5.4333,5.4337,5.4337,5.4348,5.4354,5.436,5.4285,5.4285,5.4285,0,0,5.4403,5.4396,5.4408,5.4404,5.4396,5.4385,5.4388,5.4375,5.437,5.4378,5.4357,5.4361,5.4362,5.4358,5.4356,5.4394,5.4378,5.4394,5.4422,5.4433,5.4438,5.4443,5.4459,5.4464,5.4397,5.4397,5.4397,0,5.4427,5.4434,5.4416,5.4425,5.4424,5.4399,5.4412,5.4408,5.44,5.44,5.4388,5.4391,5.4383,5.4397,5.4407,5.4405,5.4409,5.4396,5.4439,5.4444,5.4448,5.4462,5.4468,5.4399,5.4399,5.4399,5.4398,0,5.4465,5.4471,5.4482,5.4477,5.4477,5.4488,5.4471,5.4474,5.4462,5.4452,5.4463,5.4452,5.4451,5.4453,5.444,5.4466,5.446,5.4443,5.4421,5.4457,5.447,5.4476,5.4402,5.4401,5.4401,5.44,0,0,5.4522,5.4509,5.4513,5.4512,5.4503,5.4507,5.4516,5.4516,5.452,5.4515,5.4524,5.4527,5.4513,5.451,5.4497,5.4506,5.454,5.4489,5.4489,5.4501,5.4571,5.4585,5.4592,5.4529,5.453,5.4531,5.4573,0,5.4558,5.4576,5.4561,5.4581,5.4587,5.4564,5.4573,5.4568,5.456,5.4564,5.4554,5.4557,5.4537,5.4536,5.4544,5.4535,5.4555,5.4531,5.4538,5.4539,5.4543,5.4599,5.4613,5.4653,5.4578,5.4579,5.4579,0,5.4603,5.4603,5.4625,5.4617,5.4618,5.4627,5.4627,5.463,5.4625,5.4618,5.4617,5.4602,5.4611,5.4589,5.4602,5.4587,5.4589,5.4584,5.4586,5.4587,5.4562,5.4604,5.4665,5.4672,5.4587,5.4586,5.4586,0,5.4645,5.465,5.4665,5.4664,5.4654,5.4661,5.4657,5.4651,5.4653,5.4652,5.4653,5.4653,5.4654,5.4655,5.464,5.4624,5.4656,5.4632,5.4652,5.4653,5.4661,5.4661,5.4726,5.4659,5.4659,5.4659,5.4659,0,5.4689,5.4703,5.4684,5.4693,5.4709,5.4692,5.4708,5.4701,5.4697,5.4704,5.4684,5.4691,5.467,5.4676,5.4664,5.4679,5.4678,5.4674,5.4671,5.4677,5.4678,5.4679,5.4677,5.466,5.466,5.466,5.466,0,5.4739,5.4727,5.4741,5.4732,5.473,5.4742,5.4734,5.4742,5.4733,5.4743,5.4744,5.473,5.4735,5.472,5.4723,5.4715,5.4737,5.4728,5.474,5.4738,5.476,5.4759,5.4829,5.4839,5.4764,5.4765,5.4765,0,5.4768,5.478,5.4772,5.4777,5.4774,5.4781,5.4783,5.4767,5.477,5.4767,5.4776,5.478,5.4782,5.4792,5.4782,5.4785,5.4777,5.4802,5.4777,5.4784,5.478,5.4781,5.4783,5.4807,5.4808,5.4809,5.4809,0,5.4823,5.4817,5.4822,5.4825,5.4829,5.483,5.483,5.4835,5.4817,5.4822,5.4828,5.4831,5.4835,5.484,5.4841,5.4836,5.4821,5.4817,5.4822,5.483,5.4837,5.4836,5.4756,5.4816,5.4815,5.4815,5.4814,5.4814,5.4865,5.4875,5.4872,5.4879,5.4878,5.4879,5.4887,5.488,5.4885,5.4888,5.4878,5.4887,5.4883,5.4883,5.488,5.4888,5.4877,5.4883,5.4886,5.4888,5.4893,5.4834,5.4887,5.4887,5.4887,5.4887,5.4887,0,5.4921,5.4918,5.4925,5.4927,5.4932,5.4918,5.4917,5.4923,5.4932,5.493,5.4934,5.4943,5.4948,5.4939,5.4943,5.495,5.4944,5.4952,5.4952,5.4952,5.4902,5.4898,5.4958,5.4958,5.4958,5.4958,5.4958,5.4958,5.4951,5.4968,5.4962,5.4978,5.4975,5.4986,5.4987,5.4988,5.4987,5.4998,5.5003,5.4998,5.4993,5.4997,5.5002,5.4999,5.5002,5.5014,5.5009,5.4962,5.4955,5.4949,5.4945,5.5014,5.5015,5.5059,5.506,5.506]}]]